Bookmark and Share
Track history (hours):
 

MSC Caracas

Last reported at 2014-Apr-22 03:00 UTC. Time now 2014-Apr-24 06:10 UTC.
Position N 07°06' W 013°12'.

Length 207.4 m; beam 29.8 m; draft 11.4 m.

Type: Ship (hazmat cat A). MMSI: 211283670.

Wind from 290 at 17 knots

Waves 1.0 meters (3 feet), 9 second period

Barometer 1010.5 mb
Air temperature 23.0 ° C
Visibility: greater than 10.8 NM
Dewpoint 20.1 ° C
Water temperature 26.0 ° C

NotesDate/timePositionNaut miles runAvg speedWind from/ knotsBaromVisibWave heightAir tempDewpointWater temp
2014-Apr-22 03:00N 07°06' W 013°12'7512.4 290 / 171010.510.8 1.023.020.126.0
2014-Apr-21 21:00N 07°42' W 014°18'   290 / 181012.010.8 26.524.5
2014-Apr-17 23:00N 25°00' W 016°18'52611.7 050 / 291020.010.8 1.5
2014-Apr-16 02:00N 32°00' W 010°18'34210.5 040 / 191019.510.8 0.517.013.717.0
2014-Apr-14 17:34N 36°01' W 005°25'8 8.3
2014-Apr-14 16:33N 36°09' W 005°26'0 0.1
2014-Apr-14 13:30N 36°09' W 005°26'0 0.0
2014-Apr-14 06:33N 36°09' W 005°26'0 0.0
2014-Apr-13 22:33N 36°09' W 005°26'0 0.0
2014-Apr-13 21:33N 36°09' W 005°26'0 0.0
2014-Apr-13 20:15N 36°09' W 005°26'0 0.0
2014-Apr-13 19:24N 36°09' W 005°26'0 0.0
2014-Apr-13 18:30N 36°09' W 005°26'0 0.0
2014-Apr-13 17:24N 36°09' W 005°26'0 0.0
2014-Apr-13 16:27N 36°09' W 005°26'0 0.0
2014-Apr-13 15:27N 36°09' W 005°26'0 0.0
2014-Apr-13 14:21N 36°09' W 005°26'0 0.0
2014-Apr-13 13:33N 36°09' W 005°26'0 0.0
2014-Apr-13 12:15N 36°09' W 005°26'2 2.5
2014-Apr-13 11:33N 36°08' W 005°24'1010.2
2014-Apr-13 10:33N 35°58' W 005°25'6 1.0
2014-Apr-13 04:32N 35°53' W 005°30'0 0.0
2014-Apr-13 03:25N 35°53' W 005°30'0 0.0
2014-Apr-13 02:23N 35°53' W 005°30'0 0.0
2014-Apr-13 01:21N 35°53' W 005°30'0 0.0
2014-Apr-13 00:18N 35°53' W 005°30'0 0.0
2014-Apr-12 07:27N 35°53' W 005°30'3 2.9
2014-Apr-12 06:30N 35°53' W 005°33'  

Dump ship's entire track history

sailing weather and tide predictions

MSC Caracas — DGZN — position and weather